Regional Weather Roundup
Issued by NWS Sioux Falls, SD

Home | Current Version | Previous Version | Text Only | Print | Product List | Glossary Off
Versions: 1 2 3 4 5 6 7 8 9 10 11 12 13 14 15 16 17 18 19 20 21 22 23 24 25 26 27 28 29 30 31 32 33 34 35 36 37 38 39 40 41 42 43 44 45 46 47 48 49 50

000
ASUS43 KFSD 191202
RWRFSD

WEATHER ROUNDUP FOR SE SOUTH DAKOTA/SW MINNESOTA/NW IOWA
NATIONAL WEATHER SERVICE SIOUX FALLS SD
700 AM CDT FRI SEP 19 2014

NOTE: "FAIR" INDICATES FEW OR NO CLOUDS BELOW 12,000 FEET WITH NO
SIGNIFICANT WEATHER AND OR OBSTRUCTIONS TO VISIBILITY.


SDZ038>040-050-052>070-191300-
SOUTHEAST SOUTH DAKOTA

CITY           SKY/WX    TMP DP  RH WIND       PRES   REMARKS
CHAMBERLAIN    MOCLDY    62  61  97 S8        29.71F
6HR MIN TEMP:  62; 6HR MAX TEMP:  68;

HURON          CLOUDY    62  60  93 S14G22    29.71F
6HR MIN TEMP:  61; 6HR MAX TEMP:  67;

MADISON        CLOUDY    59  59 100 S13       29.82F FOG
MITCHELL       CLOUDY    64  62  93 SE13      29.75F
6HR MIN TEMP:  62; 6HR MAX TEMP:  66;

SIOUX FALLS    DRIZZLE   63  60  90 S16       29.83F FOG
6HR MIN TEMP:  61; 6HR MAX TEMP:  63; 6HR PCP: TRACE;

WINNER         FAIR      65  62  90 S9        29.74F
YANKTON        CLOUDY    66  63  88 S10       29.80F
$$

MNZ071-072-080-081-089-090-097-098-191300-
SOUTHWEST MINNESOTA

CITY           SKY/WX    TMP DP  RH WIND       PRES   REMARKS
FAIRMONT       MOCLDY    57  48  72 S13G21    29.91F
JACKSON        CLOUDY    61  55  82 S12G21    29.91S
LUVERNE        CLOUDY    63  59  88 S14       29.87F FOG
MARSHALL       CLOUDY    63  55  77 S15G21    29.83S
6HR MIN TEMP:  61; 6HR MAX TEMP:  63;

MONTEVIDEO     CLOUDY    63  57  82 SW10      29.82F
PIPESTONE      CLOUDY    61  59  94 S13G18    29.85S FOG
REDWOOD FALLS  CLOUDY    62  57  83 S16       29.86F
TRACY          CLOUDY    62  58  87 SW10G18   29.87R
WINDOM         CLOUDY    61  57  88 S14G23    29.89S
WORTHINGTON    CLOUDY    61  57  88 S14G23    29.89F
$$

IAZ001>003-012>014-020>022-031-032-NEZ013-014-SDZ071-191300-
NORTHWEST IOWA

CITY           SKY/WX    TMP DP  RH WIND       PRES   REMARKS
CHEROKEE       CLOUDY    62  61  97 S14G22    29.90F
DENISON        CLOUDY    63  61  94 S12G20    29.92F
ESTHERVILLE    CLOUDY    58  56  93 S16       29.91F
LE MARS          N/A     63  61  94 S15G22    29.87F FOG
ORANGE CITY    CLOUDY    63  61  94 S16G23    29.87F FOG
SHELDON        CLOUDY    61  61 100 S13       29.87F FOG
SIOUX CITY     CLOUDY    63  61  93 S10       29.87F
6HR MIN TEMP:  60; 6HR MAX TEMP:  64;

SPENCER        CLOUDY    61  58  90 S9        29.91F
6HR MIN TEMP:  58; 6HR MAX TEMP:  61;

STORM LAKE     CLOUDY    61  61 100 S12G17    29.93S FOG
$$

ABBREVIATIONS USED IN REMARKS
   TC - TEMPERATURE IN CELSIUS
  WCI - WIND CHILL INDEX
   HX - HEAT INDEX
  VSB - VISIBILITY



USA.gov is the U.S. government's official web portal to all federal, state and local government web resources and services.